User: anonymous   Login
Location: Unspecified
(0.0000°N, 0.0000°E)
Time: 10:58:10
(UTC+01:00)
Language:

GPS 2-05 Rocket1 - Orbit

View from above orbital plane
View from above orbital plane
View from above satellite
View from above satellite

Ground track
Ground track

The orbit data is extracted from the following two-line orbital elements,

1 20362U 89097B   14328.78923736  .00022220  00000-0  71453-3 0  5749
2 20362 035.6214 118.6976 0101502 090.1068 056.2734 15.26442740355406
Epoch (UTC): 24 November 2014 18:56:30
Eccentricity: 0.0101502
inclination: 35.6214°
perigee height: 417 km
apogee height: 556 km
right ascension of ascending node: 118.6976°
argument of perigee: 90.1068°
revolutions per day: 15.26442740
mean anomaly at epoch: 56.2734°
orbit number at epoch: 35540

The dashed part of the orbit path shows where the satellite is in the earth's shadow,  

DLR